Happy Valentine's Day! 

Flight Track Log - Related Links

Times and Time Zones

All times are in EDT time to prevent confusion due to time zone crossing. See the SWA378 flight status page for this flight to view local times or setup timezone preferences in your user account.


Time Position Orientation Groundspeed Altitude Reporting Facility
EDT Latitude Longitude Course Direction KTS MPH feet Rate Location/Type
Tue 11:09:36 AM 37.4000 -121.9667 60° Northeast 192 221 2,000  Level Northern Cal TRACON
Tue 11:11:18 AM 37.4297 -121.9008 60° Northeast 238 274 5,000 1,877 Climbing Oakland Center
Tue 11:12:19 AM 37.3758 -121.8467 141° Southeast 247 284 7,100 2,705 Climbing Oakland Center
Tue 11:13:20 AM 37.3172 -121.7822 139° Southeast 246 283 10,500 2,878 Climbing Oakland Center
Tue 11:14:22 AM 37.2494 -121.7017 137° Southeast 318 366 13,000 3,073 Climbing Oakland Center
Tue 11:15:23 AM 37.1794 -121.6189 137° Southeast 341 392 16,800 3,344 Climbing Oakland Center
Tue 11:16:24 AM 37.1094 -121.5386 138° Southeast 342 394 19,800 2,780 Climbing Oakland Center
Tue 11:17:26 AM 37.0283 -121.4531 140° Southeast 357 411 22,500 2,585 Climbing Oakland Center
Tue 11:18:27 AM 36.9472 -121.3625 138° Southeast 383 441 25,100 2,439 Climbing Oakland Center
Tue 11:19:29 AM 36.8644 -121.2728 139° Southeast 392 451 27,500 2,146 Climbing Oakland Center
Tue 11:20:30 AM 36.7822 -121.1814 138° Southeast 398 458 29,500 2,016 Climbing Oakland Center
Tue 11:21:31 AM 36.6956 -121.0881 139° Southeast 405 466 31,600 2,098 Climbing Oakland Center
Tue 11:22:33 AM 36.6103 -120.9972 139° Southeast 404 465 33,800 2,000 Climbing Oakland Center
Tue 11:23:34 AM 36.5264 -120.9075 139° Southeast 398 458 35,700 1,561 Climbing Oakland Center
Tue 11:24:36 AM 36.4250 -120.8011 140° Southeast 397 457 37,000 634 Climbing Oakland Center
Tue 11:25:37 AM 36.3475 -120.7044 135° Southeast 395 455 37,000  Level Oakland Center
Tue 11:26:38 AM 36.2808 -120.5928 127° Southeast 400 460 37,000  Level Oakland Center
Tue 11:27:40 AM 36.2125 -120.4836 128° Southeast 401 461 37,000  Level Oakland Center
Tue 11:28:42 AM 36.1439 -120.3761 128° Southeast 398 458 37,000  Level Oakland Center
Tue 11:29:43 AM 36.0758 -120.2669 128° Southeast 400 460 37,000  Level Oakland Center
Tue 11:30:44 AM 36.0069 -120.1558 127° Southeast 404 465 37,000  Level Oakland Center
Tue 11:31:46 AM 35.9375 -120.0472 128° Southeast 402 463 37,000  Level Oakland Center
Tue 11:32:47 AM 35.8683 -119.9392 128° Southeast 401 461 37,000  Level Oakland Center
Tue 11:33:49 AM 35.7981 -119.8311 129° Southeast 402 463 37,000  Level Oakland Center
Tue 11:34:50 AM 35.7144 -119.7017 128° Southeast 402 463 37,000  Level Oakland Center
Tue 11:35:52 AM 35.6442 -119.5942 129° Southeast 403 464 37,000  Level Oakland Center
Tue 11:36:53 AM 35.5758 -119.4864 128° Southeast 401 461 37,000 -49 Level Oakland Center
Tue 11:37:55 AM 35.5039 -119.3781 129° Southeast 404 465 36,900 -537 Descending Oakland Center
Tue 11:38:56 AM 35.4358 -119.2725 128° Southeast 400 460 35,900 -878 Descending Oakland Center
Tue 11:39:58 AM 35.3678 -119.1694 129° Southeast 395 455 35,100 -439 Descending Oakland Center
Tue 11:40:59 AM 35.2994 -119.0658 129° Southeast 392 451 35,000 -49 Descending Oakland Center
Tue 11:42:01 AM 35.2292 -118.9625 130° Southeast 392 451 35,000  Level Oakland Center
Tue 11:43:03 AM 35.1497 -118.8358 127° Southeast 392 451 35,000  Level Oakland Center
Tue 11:44:04 AM 35.0814 -118.7319 129° Southeast 391 450 35,000 -537 Level Oakland Center
Tue 11:45:06 AM 35.0103 -118.6267 129° Southeast 395 455 33,900 -1,872 Descending Oakland Center
Tue 11:46:25 AM 34.9261 -118.5025 130° Southeast 398 458 30,600 -2,128 Descending Los Angeles Center
Tue 11:47:27 AM 34.8494 -118.3886 129° Southeast 382 440 28,900 -1,306 Descending Los Angeles Center
Tue 11:48:29 AM 34.7850 -118.2933 129° Southeast 369 425 27,900 -1,306 Descending Los Angeles Center
Tue 11:49:31 AM 34.7197 -118.1958 129° Southeast 374 430 26,200 -1,984 Descending Los Angeles Center
Tue 11:50:33 AM 34.6561 -118.1022 130° Southeast 365 420 23,800 -1,694 Descending Los Angeles Center
Tue 11:51:35 AM 34.6044 -118.0078 124° Southeast 339 390 22,700 -1,248 Descending Los Angeles Center
Tue 11:52:38 AM 34.5519 -117.8925 119° Southeast 329 379 21,200 -1,548 Descending Los Angeles Center
Tue 11:53:39 AM 34.5150 -117.8111 119° Southeast 343 395 19,500 -1,984 Descending Los Angeles Center
Tue 11:54:42 AM 34.4617 -117.6942 119° Southeast 331 381 17,100 -2,112 Descending Los Angeles Center
Tue 11:55:44 AM 34.4181 -117.6022 120° Southeast 320 368 15,100 -1,887 Descending Los Angeles Center
Tue 11:56:46 AM 34.3739 -117.5019 118° Southeast 296 341 13,200 -1,935 Descending Los Angeles Center
Tue 11:57:48 AM 34.3342 -117.4169 119° Southeast 289 333 11,100 -2,032 Descending Los Angeles Center
Tue 11:58:50 AM 34.2900 -117.3378 124° Southeast 288 331 9,000 -1,839 Descending Los Angeles Center
Tue 11:59:52 AM 34.2144 -117.3314 176° South 272 313 7,300 -1,548 Descending Los Angeles Center
Tue 12:00:54 PM 34.1617 -117.3447 192° South 245 282 5,800 -1,981 Descending Los Angeles Center
Tue 12:01:38 PM 34.1167 -117.4000 225° Southwest 209 241 3,800 -1,673 Descending Southern California TRACON
Tue 12:02:38 PM 34.0667 -117.4333 209° Southwest 181 208 2,900 -700 Descending Southern California TRACON
Tue 12:03:38 PM 34.0500 -117.4833 248° West 159 183 2,400 -600 Descending Southern California TRACON
Tue 12:04:38 PM 34.0500 -117.5333 270° West 138 159 1,700 -700 Descending Southern California TRACON
Tue 12:08:00 PM 34.0500 -117.6000 North  Level FlightAware Approximate

Login

Don't have an account? Register now (free) for customized features, flight alerts, and more!